Waterville, ME

3:51 AM EST on November 18, 2019 (GMT -0500)
Waterville Lafleur

Weather History for KWVL - October, 2019

Change the Weather History Date:

Tuesday, October 22, 2019

  Actual Average Record
Temperature  
Mean Temperature 47 °F -  
Max Temperature 57 °F 60 °F 83 °F (1979)
Min Temperature 37 °F 35 °F 19 °F (1959)
Degree Days  
Heating Degree Days 18    
Moisture  
Dew Point 42 °F    
Average Humidity 79    
Maximum Humidity 100    
Minimum Humidity 58    
Precipitation  
Precipitation 0.00 in - - ()
Sea Level Pressure  
Sea Level Pressure 30.23 in    
Wind  
Wind Speed 3 mph (NNE)    
Max Wind Speed 9 mph    
Max Gust Speed -    
Visibility 10 miles    
Events      
Averages and records for this station are not official NWS values.
T = Trace of Precipitation, MM = Missing Value Source: NWS Daily Summary

Daily Weather History Graph

Daily Weather History Graph

Search for Another Location

Airport or City:

Astronomy

Oct. 22, 2019 Rise Set
Actual Time 7:02 AM EDT 5:43 PM EDT
Civil Twilight 6:32 AM EDT 6:12 PM EDT
Nautical Twilight 5:58 AM EDT 6:46 PM EDT
Astronomical Twilight 5:25 AM EDT 7:20 PM EDT
Moon No Moon Rise 3:08 PM EDT (10/22)
Length of Visible Light 11h 39m
Length of Day
10h 40m
Last Quarter, 37% of the Moon is Illuminated
Oct 22
Last Quarter
Oct 27
New
Nov 4
First Quarter
Nov 12
Full
Nov 19
Last Quarter

Hourly Weather History & Observations

Time (EDT) Temp. Windchill Dew Point Humidity Pressure Visibility Wind Dir Wind Speed Gust Speed Precip Events Conditions
12:56 AM 39.9 °F - 39.0 °F 97% 30.27 in 10.0 mi Calm Calm - N/A   Clear
1:56 AM 39.9 °F 37.8 °F 39.0 °F 97% 30.27 in 10.0 mi North 3.5 mph - N/A   Clear
2:56 AM 37.9 °F - 37.0 °F 97% 30.27 in 10.0 mi Calm Calm - N/A   Clear
3:56 AM 37.9 °F 34.4 °F 37.9 °F 100% 30.27 in 9.0 mi NNE 4.6 mph - N/A   Clear
4:56 AM 42.1 °F 37.7 °F 39.9 °F 92% 30.27 in 10.0 mi NNE 6.9 mph - N/A   Clear
5:56 AM 42.1 °F 37.1 °F 39.0 °F 89% 30.27 in 10.0 mi NNE 8.1 mph - N/A   Clear
6:56 AM 42.1 °F 36.6 °F 37.9 °F 85% 30.27 in 10.0 mi NNE 9.2 mph - N/A   Clear
7:56 AM 42.1 °F 37.1 °F 37.9 °F 85% 30.27 in 10.0 mi NNE 8.1 mph - N/A   Clear
8:56 AM 44.1 °F 40.1 °F 39.0 °F 82% 30.28 in 10.0 mi NNE 6.9 mph - N/A   Clear
9:56 AM 46.9 °F - 39.0 °F 74% 30.28 in 10.0 mi North 6.9 mph - N/A   Clear
10:56 AM 48.9 °F - 39.9 °F 71% 30.27 in 10.0 mi Calm Calm - N/A   Clear
11:56 AM 51.1 °F - 42.1 °F 71% 30.25 in 10.0 mi NE 6.9 mph - N/A   Clear
12:56 PM 54.0 °F - 43.0 °F 66% 30.25 in 10.0 mi Variable 3.5 mph - N/A   Clear
1:56 PM 57.9 °F - 43.0 °F 58% 30.23 in 10.0 mi Variable 5.8 mph - N/A   Clear
2:56 PM 57.0 °F - 44.1 °F 62% 30.23 in 10.0 mi Calm Calm - N/A   Clear
3:56 PM 55.9 °F - 43.0 °F 62% 30.22 in 10.0 mi Variable 3.5 mph - N/A   Clear
4:56 PM 55.0 °F - 44.1 °F 67% 30.21 in 10.0 mi Variable 3.5 mph - N/A   Clear
5:56 PM 53.1 °F - 44.1 °F 71% 30.21 in 10.0 mi Calm Calm - N/A   Clear
6:56 PM 52.0 °F - 44.1 °F 74% 30.20 in 8.0 mi Calm Calm - N/A   Clear
7:56 PM 51.1 °F - 44.1 °F 77% 30.18 in 10.0 mi Variable 3.5 mph - N/A   Clear
8:56 PM 51.1 °F - 44.1 °F 77% 30.16 in 10.0 mi Variable 3.5 mph - N/A   Clear
9:56 PM 51.1 °F - 44.1 °F 77% 30.16 in 10.0 mi Calm Calm - N/A   Mostly Cloudy
10:56 PM 51.1 °F - 45.0 °F 80% 30.13 in 10.0 mi Variable 4.6 mph - N/A   Overcast
11:56 PM 51.1 °F - 46.0 °F 83% 30.10 in 10.0 mi Variable 4.6 mph - N/A   Overcast